• In Belgien
  • Länderverzeichnis
  • Für 7 Tage
  • Wassertemperatur
  • Satellitenkarten
  • Wetterkarte
  • Widgets
  • user-avatar
    Anmelden

    Stündliche Wetter Kalgoorlie

    Heute, 21 August, Montag

    Zeit Temperatur Niederschläge Wind Luftdruck Luftfeuchtigkeit
    00:00 +10°C° 0 mm 2 m/S 733 mmHg 80%
    01:00 +9°C° 0 mm 2 m/S 733 mmHg 83%
    02:00 +10°C° 0 mm 1 m/S 733 mmHg 86%
    03:00 +9°C° 0 mm 1 m/S 733 mmHg 87%
    04:00 +9°C° 0 mm 1 m/S 733 mmHg 88%
    05:00 +9°C° 0 mm 1 m/S 733 mmHg 90%
    06:00 +10°C° 0 mm 1 m/S 734 mmHg 85%
    07:00 +11°C° 0 mm 1 m/S 734 mmHg 80%
    08:00 +12°C° 0 mm 2 m/S 734 mmHg 76%
    09:00 +13°C° 0 mm 2 m/S 734 mmHg 69%
    10:00 +15°C° 0 mm 2 m/S 734 mmHg 62%
    11:00 +16°C° 0 mm 2 m/S 734 mmHg 55%
    12:00 +17°C° 0 mm 3 m/S 733 mmHg 50%
    13:00 +18°C° 0 mm 3 m/S 733 mmHg 44%
    14:00 +20°C° 0 mm 3 m/S 732 mmHg 38%
    15:00 +20°C° 0 mm 3 m/S 732 mmHg 38%
    16:00 +20°C° 0 mm 3 m/S 732 mmHg 38%
    17:00 +19°C° 0 mm 3 m/S 732 mmHg 37%
    18:00 +18°C° 0 mm 3 m/S 732 mmHg 40%
    19:00 +17°C° 0 mm 3 m/S 732 mmHg 43%
    20:00 +16°C° 0 mm 3 m/S 732 mmHg 44%
    21:00 +16°C° 0 mm 3 m/S 732 mmHg 45%
    22:00 +15°C° 0 mm 2 m/S 732 mmHg 46%
    23:00 +15°C° 0 mm 2 m/S 732 mmHg 48%

    Morgen, 22 August, Dienstag

    Zeit Temperatur Niederschläge Wind Luftdruck Luftfeuchtigkeit
    00:00 +14°C° 0 mm 2 m/S 732 mmHg 49%
    01:00 +14°C° 0 mm 2 m/S 732 mmHg 51%
    02:00 +13°C° 0 mm 2 m/S 732 mmHg 52%
    03:00 +12°C° 0 mm 2 m/S 731 mmHg 55%
    04:00 +12°C° 0 mm 2 m/S 731 mmHg 58%
    05:00 +11°C° 0 mm 1 m/S 731 mmHg 61%
    06:00 +12°C° 0 mm 1 m/S 732 mmHg 57%
    07:00 +13°C° 0 mm 1 m/S 732 mmHg 54%
    08:00 +14°C° 0 mm 2 m/S 732 mmHg 50%
    09:00 +16°C° 0 mm 2 m/S 732 mmHg 44%
    10:00 +18°C° 0 mm 2 m/S 732 mmHg 38%
    11:00 +20°C° 0 mm 3 m/S 732 mmHg 32%
    12:00 +21°C° 0 mm 3 m/S 731 mmHg 30%
    13:00 +22°C° 0 mm 3 m/S 731 mmHg 28%
    14:00 +24°C° 0 mm 3 m/S 731 mmHg 25%
    15:00 +24°C° 0 mm 3 m/S 731 mmHg 26%
    16:00 +24°C° 0 mm 3 m/S 731 mmHg 27%
    17:00 +22°C° 0 mm 3 m/S 731 mmHg 28%
    18:00 +21°C° 0 mm 4 m/S 731 mmHg 32%
    19:00 +19°C° 0 mm 4 m/S 732 mmHg 36%
    20:00 +17°C° 0 mm 5 m/S 732 mmHg 40%
    21:00 +16°C° 0 mm 6 m/S 733 mmHg 43%
    22:00 +15°C° 0 mm 6 m/S 733 mmHg 46%
    23:00 +14°C° 0 mm 6 m/S 733 mmHg 49%

    übermorgen, 23 August, Mittwoch

    Zeit Temperatur Niederschläge Wind Luftdruck Luftfeuchtigkeit
    00:00 +14°C° 0 mm 6 m/S 733 mmHg 54%
    01:00 +13°C° 0 mm 6 m/S 733 mmHg 60%
    02:00 +11°C° 0 mm 7 m/S 734 mmHg 65%
    03:00 +10°C° 0 mm 7 m/S 734 mmHg 69%
    04:00 +10°C° 0 mm 7 m/S 734 mmHg 73%
    05:00 +9°C° 0 mm 7 m/S 734 mmHg 78%
    06:00 +10°C° 0 mm 7 m/S 735 mmHg 77%
    07:00 +10°C° 0 mm 7 m/S 735 mmHg 76%
    08:00 +10°C° 0 mm 8 m/S 736 mmHg 75%
    09:00 +12°C° 0 mm 7 m/S 736 mmHg 67%
    10:00 +15°C° 0 mm 7 m/S 736 mmHg 59%
    11:00 +17°C° 0 mm 7 m/S 736 mmHg 51%
    12:00 +18°C° 0 mm 7 m/S 736 mmHg 48%
    13:00 +20°C° 0 mm 6 m/S 735 mmHg 44%
    14:00 +21°C° 0 mm 6 m/S 735 mmHg 40%
    15:00 +20°C° 0 mm 6 m/S 735 mmHg 42%
    16:00 +20°C° 0 mm 6 m/S 735 mmHg 43%
    17:00 +19°C° 0 mm 6 m/S 735 mmHg 44%
    18:00 +19°C° 0 mm 6 m/S 736 mmHg 47%
    19:00 +17°C° 0 mm 6 m/S 736 mmHg 50%
    20:00 +16°C° 0 mm 6 m/S 737 mmHg 53%
    21:00 +15°C° 0 mm 6 m/S 737 mmHg 57%
    22:00 +14°C° 0 mm 7 m/S 737 mmHg 62%
    23:00 +12°C° 0 mm 7 m/S 737 mmHg 67%

    24 August, Donnerstag

    Zeit Temperatur Niederschläge Wind Luftdruck Luftfeuchtigkeit
    00:00 +11°C° 0 mm 7 m/S 737 mmHg 69%
    01:00 +10°C° 0 mm 7 m/S 737 mmHg 71%
    02:00 +10°C° 0 mm 6 m/S 737 mmHg 74%
    03:00 +9°C° 0 mm 6 m/S 737 mmHg 74%
    04:00 +9°C° 0 mm 6 m/S 737 mmHg 74%
    05:00 +9°C° 0 mm 6 m/S 737 mmHg 75%
    06:00 +9°C° 0 mm 6 m/S 737 mmHg 73%
    07:00 +9°C° 0 mm 6 m/S 737 mmHg 72%
    08:00 +9°C° 0 mm 7 m/S 737 mmHg 71%
    09:00 +11°C° 0 mm 7 m/S 737 mmHg 65%
    10:00 +12°C° 0 mm 7 m/S 737 mmHg 60%
    11:00 +14°C° 0 mm 7 m/S 737 mmHg 54%
    12:00 +15°C° 0 mm 7 m/S 736 mmHg 51%
    13:00 +16°C° 0 mm 6 m/S 735 mmHg 48%
    14:00 +17°C° 0 mm 6 m/S 735 mmHg 45%
    15:00 +17°C° 0 mm 6 m/S 735 mmHg 47%
    16:00 +17°C° 0 mm 6 m/S 734 mmHg 48%
    17:00 +16°C° 0 mm 6 m/S 734 mmHg 50%
    18:00 +15°C° 0 mm 5 m/S 735 mmHg 54%
    19:00 +14°C° 0 mm 5 m/S 735 mmHg 58%
    20:00 +13°C° 0 mm 4 m/S 736 mmHg 62%
    21:00 +13°C° 0 mm 4 m/S 736 mmHg 65%
    22:00 +12°C° 0 mm 5 m/S 736 mmHg 68%
    23:00 +12°C° 0 mm 5 m/S 735 mmHg 71%

    25 August, Freitag

    Zeit Temperatur Niederschläge Wind Luftdruck Luftfeuchtigkeit
    00:00 +10°C° 0 mm 5 m/S 735 mmHg 74%
    01:00 +10°C° 0 mm 5 m/S 735 mmHg 77%
    02:00 +9°C° 0 mm 5 m/S 735 mmHg 80%
    03:00 +9°C° 0 mm 5 m/S 735 mmHg 83%
    04:00 +8°C° 0 mm 6 m/S 735 mmHg 86%
    05:00 +8°C° 0 mm 6 m/S 735 mmHg 89%
    06:00 +8°C° 0 mm 6 m/S 735 mmHg 87%
    07:00 +9°C° 0 mm 6 m/S 736 mmHg 84%
    08:00 +9°C° 0 mm 6 m/S 737 mmHg 81%
    09:00 +11°C° 0 mm 7 m/S 736 mmHg 75%
    10:00 +12°C° 0 mm 7 m/S 736 mmHg 69%
    11:00 +14°C° 0 mm 7 m/S 736 mmHg 63%
    12:00 +15°C° 0 mm 7 m/S 735 mmHg 62%
    13:00 +15°C° 0 mm 7 m/S 735 mmHg 60%
    14:00 +15°C° 0 mm 7 m/S 734 mmHg 58%
    15:00 +15°C° 0 mm 7 m/S 735 mmHg 60%
    16:00 +14°C° 0 mm 7 m/S 735 mmHg 61%
    17:00 +14°C° 0 mm 7 m/S 735 mmHg 63%
    18:00 +12°C° 0 mm 7 m/S 736 mmHg 67%
    19:00 +11°C° 0 mm 7 m/S 736 mmHg 71%
    20:00 +11°C° 0 mm 7 m/S 737 mmHg 75%
    21:00 +11°C° 0 mm 7 m/S 737 mmHg 76%
    22:00 +10°C° 0 mm 7 m/S 737 mmHg 77%
    23:00 +10°C° 0 mm 7 m/S 737 mmHg 78%

    26 August, Samstag

    Zeit Temperatur Niederschläge Wind Luftdruck Luftfeuchtigkeit
    00:00 +10°C° 0 mm 7 m/S 737 mmHg 79%
    01:00 +10°C° 0 mm 7 m/S 737 mmHg 80%
    02:00 +10°C° 0 mm 7 m/S 737 mmHg 80%
    03:00 +10°C° 0,1 mm 7 m/S 737 mmHg 80%
    04:00 +10°C° 0,1 mm 7 m/S 737 mmHg 81%
    05:00 +10°C° 0,1 mm 7 m/S 737 mmHg 81%
    06:00 +10°C° 0,1 mm 7 m/S 737 mmHg 81%
    07:00 +10°C° 0,1 mm 8 m/S 738 mmHg 81%
    08:00 +10°C° 0,1 mm 8 m/S 738 mmHg 80%
    09:00 +11°C° 0 mm 8 m/S 738 mmHg 77%
    10:00 +11°C° 0 mm 8 m/S 738 mmHg 74%
    11:00 +12°C° 0 mm 9 m/S 737 mmHg 70%
    12:00 +12°C° 0 mm 8 m/S 737 mmHg 70%
    13:00 +12°C° 0 mm 8 m/S 737 mmHg 69%
    14:00 +12°C° 0 mm 8 m/S 736 mmHg 68%
    15:00 +12°C° 0 mm 8 m/S 737 mmHg 69%
    16:00 +12°C° 0 mm 7 m/S 737 mmHg 69%
    17:00 +12°C° 0 mm 7 m/S 737 mmHg 70%
    18:00 +12°C° 0 mm 8 m/S 737 mmHg 71%
    19:00 +11°C° 0 mm 8 m/S 738 mmHg 72%
    20:00 +11°C° 0 mm 8 m/S 738 mmHg 73%
    21:00 +11°C° 0 mm 8 m/S 738 mmHg 74%
    22:00 +11°C° 0 mm 8 m/S 738 mmHg 75%
    23:00 +10°C° 0 mm 8 m/S 738 mmHg 75%
    Mehr zeigen